This is the latest recevied weather packets stored in our database for station/object KD7KCN-5. If no packets are shown the sender has not sent any weather packets the latest 10 day(s).
| Time | Temp. | Humidity | Pressure | Rain* | Wind** | Luminosity | Snow |
|---|---|---|---|---|---|---|---|
| 1777065143 | 16.11° C | 18% | 1009 hPa | 0 mm | - | 432 W/m² | - |
| 1777064543 | 17.22° C | 16% | 1009 hPa | 0 mm | - | 517 W/m² | - |
| 1777063943 | 17.22° C | 18% | 1009.3 hPa | 0 mm | - | 810 W/m² | - |
| 1777063343 | 16.67° C | 17% | 1009.2 hPa | 0 mm | - | 506 W/m² | - |
| 1777062743 | 16.67° C | 18% | 1009.2 hPa | 0 mm | - | 564 W/m² | - |
| 1777062143 | 16.11° C | 18% | 1009.2 hPa | 0 mm | - | 373 W/m² | - |
| 1777061543 | 16.67° C | 17% | 1009.2 hPa | 0 mm | - | 343 W/m² | - |
| 1777060943 | 17.22° C | 17% | 1009.2 hPa | 0 mm | - | 499 W/m² | - |
| 1777060344 | 17.78° C | 17% | 1009.4 hPa | 0 mm | - | 719 W/m² | - |
| 1777059743 | 16.67° C | 19% | 1009.7 hPa | 0 mm | - | 962 W/m² | - |
| 1777059143 | 17.22° C | 17% | 1009.6 hPa | 0 mm | - | 780 W/m² | - |
| 1777058543 | 17.22° C | 18% | 1010 hPa | 0 mm | - | 717 W/m² | - |
| 1777057943 | 17.22° C | 19% | 1010.2 hPa | 0 mm | - | 318 W/m² | - |
| 1777057343 | 17.22° C | 17% | 1010 hPa | 0 mm | - | 882 W/m² | - |
| 1777056743 | 17.22° C | 17% | 1010.3 hPa | 0 mm | - | 953 W/m² | - |
| 1777056143 | 16.67° C | 19% | 1010.4 hPa | 0 mm | - | 782 W/m² | - |
| 1777055543 | 16.67° C | 18% | 1010.5 hPa | 0 mm | - | 932 W/m² | - |
| 1777054943 | 17.22° C | 20% | 1010.7 hPa | 0 mm | - | 923 W/m² | - |
| 1777054343 | 16.67° C | 19% | 1010.7 hPa | 0 mm | - | 944 W/m² | - |
| 1777053743 | 16.11° C | 19% | 1010.8 hPa | 0 mm | - | 851 W/m² | - |
| 1777053143 | 16.67° C | 19% | 1010.9 hPa | 0 mm | - | 881 W/m² | - |
| 1777052543 | 16.11° C | 18% | 1011.1 hPa | 0 mm | - | 856 W/m² | - |
| 1777051943 | 16.67° C | 20% | 1011.2 hPa | 0 mm | - | 844 W/m² | - |
| 1777051343 | 16.11° C | 20% | 1011.2 hPa | 0 mm | - | 824 W/m² | - |
| 1777050744 | 16.11° C | 20% | 1011.1 hPa | 0 mm | - | 802 W/m² | - |
* Rain latest hour (hover to see other rain measurements)
** Current wind speed in m/s (hover to see current wind gust speed)